Weather History for KMVE - August, 2013

Change the Weather History Date:

Thursday, August 8, 2013

  Actual Average Record
Temperature  
Mean Temperature 65 °F -  
Max Temperature 73 °F 83 °F 100 °F (1983)
Min Temperature 57 °F 60 °F 45 °F (1964)
Growing Degree Days 15 (Base 50)    
Moisture  
Dew Point 59 °F    
Average Humidity 84    
Maximum Humidity 100    
Minimum Humidity 69    
Precipitation  
Precipitation 0.33 in - - ()
Sea Level Pressure  
Sea Level Pressure 30.03 in    
Wind  
Wind Speed 4 mph (SSW)    
Max Wind Speed 9 mph    
Max Gust Speed -    
Visibility 10 miles    
Events Rain    
Averages and records for this station are not official NWS values.
T = Trace of Precipitation, MM = Missing Value Source: NWS Daily Summary

Daily Weather History Graph

Daily Weather History Graph

Search for Another Location

Airport or City:

Trip Planner

Search our weather history database for the weather conditions in past years. The results will help you decide how hot, cold, wet, or windy it might be!

Date:

Astronomy

Aug. 08, 2013 Rise Set
Actual Time 6:16 AM CDT 8:39 PM CDT
Civil Twilight 5:43 AM CDT 9:12 PM CDT
Nautical Twilight 5:03 AM CDT 9:52 PM CDT
Astronomical Twilight 4:16 AM CDT 10:38 PM CDT
Moon 8:12 AM CDT (8/8) 9:09 PM CDT (8/8)
Length of Visible Light 15h 28m
Length of Day
14h 22m
Waxing Crescent, 3% of the Moon is Illuminated
Aug 8
Waxing Crescent
Aug 14
First Quarter
Aug 20
Full
Aug 28
Last Quarter
Sep 5
New

Hourly Weather History & Observations

Time (CDT) Temp. Dew Point Humidity Pressure Visibility Wind Dir Wind Speed Gust Speed Precip Events Conditions
12:14 AM 62.6 °F 55.4 °F 77% 30.03 in 10.0 mi South 4.6 mph - N/A   Clear
12:34 AM 62.6 °F 53.6 °F 72% 30.03 in 10.0 mi South 4.6 mph - N/A   Clear
12:54 AM 60.8 °F 55.4 °F 82% 30.03 in 10.0 mi South 3.5 mph - N/A   Clear
1:14 AM 60.8 °F 53.6 °F 77% 30.04 in 10.0 mi SW 3.5 mph - N/A   Scattered Clouds
1:34 AM 60.8 °F 55.4 °F 82% 30.04 in 10.0 mi Calm Calm - N/A   Mostly Cloudy
1:53 AM 60.8 °F 55.4 °F 82% 30.04 in 10.0 mi SSW 3.5 mph - N/A   Overcast
2:14 AM 60.8 °F 55.4 °F 82% 30.03 in 10.0 mi Calm Calm - N/A   Mostly Cloudy
2:34 AM 60.8 °F 55.4 °F 82% 30.03 in 10.0 mi SSW 4.6 mph - N/A   Mostly Cloudy
2:53 AM 60.8 °F 55.4 °F 82% 30.03 in 10.0 mi SSW 4.6 mph - N/A   Mostly Cloudy
3:14 AM 60.8 °F 55.4 °F 82% 30.02 in 10.0 mi South 4.6 mph - N/A   Mostly Cloudy
3:34 AM 60.8 °F 55.4 °F 82% 30.02 in 10.0 mi Calm Calm - N/A   Mostly Cloudy
3:53 AM 60.8 °F 55.4 °F 82% 30.02 in 10.0 mi SW 6.9 mph - N/A Rain Rain
4:14 AM 60.8 °F 55.4 °F 82% 30.02 in 10.0 mi Calm Calm - N/A   Overcast
4:34 AM 60.8 °F 55.4 °F 82% 30.00 in 10.0 mi South 4.6 mph - N/A   Mostly Cloudy
4:54 AM 60.8 °F 57.2 °F 88% 30.01 in 10.0 mi Calm Calm - N/A Rain Light Rain
5:14 AM 60.8 °F 57.2 °F 88% 30.01 in 10.0 mi SW 3.5 mph - N/A   Drizzle
5:34 AM 60.8 °F 57.2 °F 88% 30.00 in 10.0 mi WSW 8.1 mph - 0.03 in Rain Rain
5:54 AM 59.0 °F 57.2 °F 94% 30.00 in 10.0 mi SW 3.5 mph - 0.07 in Rain Rain
6:14 AM 59.0 °F 57.2 °F 94% 30.02 in 10.0 mi Calm Calm - 0.02 in Rain Rain
6:34 AM 59.0 °F 57.2 °F 94% 30.03 in 10.0 mi WSW 4.6 mph - 0.12 in Rain Rain
6:54 AM 57.2 °F 57.2 °F 100% 30.04 in 10.0 mi SW 4.6 mph - 0.20 in Rain Rain
7:14 AM 57.2 °F 57.2 °F 100% 30.04 in 10.0 mi SSW 5.8 mph - 0.04 in Rain Light Rain
7:34 AM 57.2 °F 57.2 °F 100% 30.05 in 10.0 mi SW 4.6 mph - 0.05 in Rain Rain
7:54 AM 57.2 °F 57.2 °F 100% 30.05 in 10.0 mi SSW 9.2 mph - 0.05 in   Overcast
8:14 AM 57.2 °F 57.2 °F 100% 30.05 in 10.0 mi SSW 6.9 mph - N/A   Light Drizzle
8:34 AM 59.0 °F 59.0 °F 100% 30.05 in 10.0 mi SSW 5.8 mph - 0.01 in   Overcast
8:54 AM 59.0 °F 59.0 °F 100% 30.06 in 10.0 mi SSW 4.6 mph - 0.01 in   Overcast
9:14 AM 60.8 °F 59.0 °F 94% 30.06 in 10.0 mi SSW 5.8 mph - N/A   Overcast
9:34 AM 60.8 °F 57.2 °F 88% 30.06 in 10.0 mi SW 6.9 mph - N/A   Mostly Cloudy
9:54 AM 60.8 °F 59.0 °F 94% 30.06 in 10.0 mi SSW 6.9 mph - N/A   Mostly Cloudy
10:14 AM 60.8 °F 59.0 °F 94% 30.06 in 10.0 mi SSW 4.6 mph - N/A Rain Light Rain
10:33 AM 62.6 °F 60.8 °F 94% 30.06 in 10.0 mi South 3.5 mph - N/A   Light Drizzle
10:54 AM 64.4 °F 60.8 °F 88% 30.06 in 10.0 mi South 8.1 mph - N/A   Overcast
11:14 AM 64.4 °F 60.8 °F 88% 30.05 in 10.0 mi SSW 9.2 mph - N/A   Mostly Cloudy
11:33 AM 64.4 °F 59.0 °F 83% 30.05 in 10.0 mi South 6.9 mph - N/A   Overcast
11:54 AM 66.2 °F 60.8 °F 83% 30.05 in 10.0 mi SSW 6.9 mph - N/A   Overcast
12:14 PM 68.0 °F 60.8 °F 78% 30.05 in 10.0 mi SW 9.2 mph - N/A   Overcast
12:33 PM 68.0 °F 60.8 °F 78% 30.05 in 10.0 mi South 5.8 mph - N/A   Overcast
12:54 PM 66.2 °F 60.8 °F 83% 30.04 in 10.0 mi South 6.9 mph - N/A   Overcast
1:14 PM 66.2 °F 59.0 °F 78% 30.04 in 10.0 mi SSW 6.9 mph - N/A   Overcast
1:33 PM 66.2 °F 60.8 °F 83% 30.04 in 10.0 mi SW 4.6 mph - N/A   Overcast
1:54 PM 68.0 °F 60.8 °F 78% 30.05 in 10.0 mi SW 5.8 mph - N/A   Overcast
2:14 PM 69.8 °F 60.8 °F 73% 30.04 in 10.0 mi South 3.5 mph - N/A   Overcast
2:34 PM 69.8 °F 62.6 °F 78% 30.03 in 10.0 mi South 4.6 mph - N/A   Mostly Cloudy
2:54 PM 68.0 °F 60.8 °F 78% 30.03 in 10.0 mi South 4.6 mph - N/A   Scattered Clouds
3:13 PM 69.8 °F 60.8 °F 73% 30.03 in 10.0 mi Calm Calm - N/A   Scattered Clouds
3:34 PM 69.8 °F 62.6 °F 78% 30.03 in 10.0 mi Calm Calm - N/A   Mostly Cloudy
3:54 PM 69.8 °F 62.6 °F 78% 30.03 in 10.0 mi Calm Calm - N/A   Overcast
4:13 PM 69.8 °F 60.8 °F 73% 30.02 in 10.0 mi Calm Calm - N/A   Overcast
4:34 PM 71.6 °F 62.6 °F 73% 30.01 in 10.0 mi SSE 4.6 mph - N/A   Scattered Clouds
4:54 PM 71.6 °F 62.6 °F 73% 30.01 in 10.0 mi Calm Calm - N/A   Clear
5:13 PM 71.6 °F 62.6 °F 73% 30.02 in 10.0 mi Calm Calm - N/A   Clear
5:34 PM 71.6 °F 60.8 °F 69% 30.02 in 10.0 mi Calm Calm - N/A   Clear
5:54 PM 71.6 °F 60.8 °F 69% 30.02 in 10.0 mi Calm Calm - N/A   Scattered Clouds
6:14 PM 71.6 °F 62.6 °F 73% 30.02 in 10.0 mi Calm Calm - N/A   Scattered Clouds
6:34 PM 73.4 °F 62.6 °F 69% 30.02 in 10.0 mi Calm Calm - N/A   Clear
6:54 PM 71.6 °F 62.6 °F 73% 30.01 in 10.0 mi Calm Calm - N/A   Clear
7:14 PM 71.6 °F 62.6 °F 73% 30.01 in 10.0 mi Calm Calm - N/A   Clear
7:34 PM 71.6 °F 62.6 °F 73% 30.01 in 10.0 mi Calm Calm - N/A   Clear
7:54 PM 69.8 °F 60.8 °F 73% 30.01 in 10.0 mi Calm Calm - N/A   Clear
8:14 PM 69.8 °F 62.6 °F 78% 30.01 in 10.0 mi Calm Calm - N/A   Clear
8:34 PM 68.0 °F 62.6 °F 83% 30.02 in 10.0 mi Calm Calm - N/A   Clear
8:54 PM 66.2 °F 62.6 °F 88% 30.02 in 10.0 mi Calm Calm - N/A   Clear
9:14 PM 66.2 °F 62.6 °F 88% 30.02 in 10.0 mi Calm Calm - N/A   Clear
9:33 PM 66.2 °F 62.6 °F 88% 30.02 in 10.0 mi Calm Calm - N/A   Clear
9:54 PM 64.4 °F 62.6 °F 94% 30.03 in 10.0 mi NW 3.5 mph - N/A   Clear
10:14 PM 64.4 °F 62.6 °F 94% 30.03 in 10.0 mi Calm Calm - N/A   Clear
10:33 PM 64.4 °F 62.6 °F 94% 30.03 in 10.0 mi Calm Calm - N/A   Clear
10:54 PM 62.6 °F 62.6 °F 100% 30.03 in 10.0 mi NNW 3.5 mph - N/A   Clear
11:14 PM 62.6 °F 62.6 °F 100% 30.04 in 10.0 mi NNW 4.6 mph - N/A   Clear
11:33 PM 62.6 °F 62.6 °F 100% 30.04 in 10.0 mi NNW 3.5 mph - N/A   Clear
11:54 PM 62.6 °F 60.8 °F 94% 30.04 in 10.0 mi North 4.6 mph - N/A   Clear